GFSNIL_prec_prec_099.txt.gz
QPF
0.00 0.00 0.00 0.00 0.00 0.00 0.00 0.00 0.00 0.01 0.03 0.12 0.15 0.11 0.08 0.08 0.06 0.05 0.03 0.02 0.02 0.02
0.00 0.00 0.00 0.00 0.00 0.01 0.01 0.00 0.00 0.00 0.02 0.07 0.04 0.09 0.09 0.08 0.07 0.07 0.05 0.04 0.02 0.01
0.00 0.00 0.00 0.00 0.00 0.00 0.01 0.00 0.00 0.00 0.00 0.02 0.04 0.06 0.07 0.02 0.01 0.01 0.01 0.01 0.00 0.01
0.00 0.00 0.00 0.00 0.00 0.00 0.00 0.00 0.00 0.00 0.00 0.00 0.01 0.03 0.10 0.06 0.00 0.00 0.00 0.00 0.00 0.00
0.00 0.00 0.00 0.00 0.00 0.00 0.00 0.00 0.00 0.00 0.00 0.00 0.00 0.01 0.02 0.04 0.01 0.00 0.01 0.00 0.00 0.00
0.00 0.00 0.00 0.00 0.01 0.00 0.00 0.00 0.00 0.01 0.00 0.00 0.00 0.00 0.00 0.00 0.01 0.00 0.00 0.00 0.00 0.00
0.02 0.01 0.00 0.00 0.01 0.01 0.01 0.01 0.01 0.02 0.01 0.01 0.00 0.00 0.00 0.00 0.01 0.00 0.00 0.00 0.00 0.00
0.03 0.01 0.00 0.01 0.01 0.00 0.00 0.00 0.01 0.01 0.01 0.02 0.03 0.01 0.01 0.00 0.01 0.01 0.00 0.00 0.00 0.00
0.07 0.03 0.01 0.00 0.00 0.01 0.00 0.01 0.01 0.01 0.00 0.01 0.00 0.01 0.01 0.00 0.01 0.01 0.00 0.00 0.00 0.00
0.09 0.04 0.02 0.01 0.02 0.02 0.01 0.01 0.01 0.01 0.01 0.02 0.01 0.02 0.00 0.00 0.00 0.01 0.02 0.02 0.02 0.02
0.16 0.09 0.06 0.09 0.07 0.05 0.04 0.03 0.03 0.03 0.03 0.03 0.03 0.04 0.02 0.02 0.01 0.03 0.05 0.04 0.02 0.02
0.23 0.25 0.24 0.21 0.20 0.16 0.16 0.12 0.07 0.04 0.03 0.02 0.02 0.02 0.01 0.02 0.01 0.04 0.06 0.05 0.04 0.03
0.17 0.16 0.24 0.27 0.27 0.22 0.22 0.16 0.14 0.11 0.07 0.05 0.01 0.02 0.01 0.00 0.00 0.00 0.01 0.00 0.01 0.02
0.13 0.05 0.03 0.04 0.08 0.11 0.11 0.07 0.05 0.05 0.05 0.03 0.01 0.00 0.00 0.00 0.00 0.00 0.00 0.00 0.00 0.00

GFSNIL_prec_prec_102.txt.gz
QPF
0.00 0.00 0.00 0.00 0.00 0.00 0.00 0.00 0.00 0.00 0.00 0.03 0.13 0.18 0.19 0.18 0.10 0.08 0.09 0.05 0.02 0.01
0.00 0.00 0.00 0.00 0.00 0.00 0.00 0.00 0.00 0.00 0.00 0.01 0.05 0.10 0.12 0.16 0.16 0.12 0.09 0.05 0.02 0.02
0.00 0.00 0.00 0.00 0.00 0.00 0.00 0.00 0.00 0.00 0.00 0.00 0.01 0.03 0.07 0.09 0.08 0.10 0.07 0.07 0.04 0.01
0.01 0.00 0.00 0.00 0.00 0.00 0.00 0.00 0.00 0.00 0.00 0.00 0.00 0.01 0.01 0.03 0.04 0.01 0.02 0.02 0.01 0.00
0.01 0.00 0.00 0.00 0.00 0.00 0.00 0.00 0.00 0.00 0.00 0.00 0.01 0.00 0.01 0.02 0.05 0.07 0.03 0.02 0.01 0.00
0.01 0.00 0.00 0.00 0.00 0.00 0.00 0.00 0.01 0.01 0.00 0.00 0.00 0.01 0.02 0.01 0.01 0.02 0.01 0.02 0.02 0.01
0.03 0.01 0.01 0.00 0.01 0.00 0.00 0.00 0.00 0.01 0.00 0.00 0.00 0.00 0.01 0.01 0.00 0.00 0.00 0.00 0.00 0.00
0.06 0.04 0.02 0.01 0.01 0.01 0.01 0.01 0.01 0.02 0.03 0.02 0.00 0.00 0.00 0.00 0.00 0.00 0.00 0.00 0.00 0.00
0.09 0.07 0.04 0.02 0.01 0.02 0.00 0.00 0.01 0.01 0.00 0.00 0.01 0.02 0.00 0.00 0.00 0.00 0.01 0.01 0.01 0.00
0.08 0.06 0.03 0.02 0.02 0.01 0.00 0.00 0.01 0.01 0.00 0.00 0.01 0.02 0.01 0.01 0.01 0.03 0.05 0.02 0.02 0.03
0.12 0.08 0.05 0.04 0.04 0.02 0.00 0.00 0.01 0.01 0.01 0.00 0.01 0.01 0.00 0.01 0.00 0.00 0.01 0.01 0.01 0.00
0.21 0.17 0.13 0.13 0.12 0.11 0.08 0.04 0.02 0.02 0.02 0.02 0.02 0.03 0.02 0.01 0.01 0.02 0.03 0.05 0.06 0.06
0.24 0.35 0.35 0.44 0.41 0.31 0.27 0.29 0.21 0.18 0.16 0.12 0.07 0.10 0.10 0.11 0.12 0.15 0.16 0.15 0.13 0.16
0.32 0.36 0.39 0.41 0.44 0.51 0.45 0.36 0.32 0.28 0.25 0.23 0.19 0.14 0.14 0.17 0.17 0.17 0.13 0.10 0.05 0.01

GFSNIL_prec_prec_105.txt.gz
QPF
0.00 0.00 0.00 0.00 0.00 0.00 0.00 0.00 0.00 0.00 0.00 0.00 0.00 0.03 0.14 0.25 0.17 0.10 0.08 0.10 0.10 0.08
0.04 0.00 0.00 0.00 0.00 0.00 0.00 0.00 0.00 0.00 0.00 0.00 0.00 0.01 0.07 0.20 0.19 0.15 0.15 0.16 0.15 0.09
0.07 0.05 0.01 0.00 0.00 0.00 0.00 0.00 0.00 0.00 0.00 0.00 0.00 0.00 0.00 0.08 0.20 0.21 0.16 0.14 0.14 0.08
0.05 0.05 0.02 0.00 0.00 0.00 0.00 0.00 0.00 0.00 0.00 0.00 0.00 0.00 0.01 0.03 0.08 0.10 0.10 0.07 0.08 0.06
0.03 0.04 0.01 0.00 0.00 0.00 0.00 0.00 0.00 0.00 0.00 0.00 0.00 0.00 0.00 0.01 0.01 0.02 0.03 0.03 0.04 0.03
0.04 0.05 0.03 0.00 0.00 0.00 0.00 0.00 0.00 0.00 0.00 0.00 0.01 0.02 0.01 0.01 0.01 0.02 0.06 0.05 0.05 0.05
0.08 0.09 0.05 0.01 0.00 0.01 0.01 0.00 0.00 0.00 0.00 0.00 0.00 0.01 0.03 0.02 0.03 0.01 0.01 0.02 0.02 0.07
0.05 0.18 0.10 0.05 0.02 0.02 0.02 0.01 0.01 0.00 0.00 0.00 0.00 0.01 0.02 0.03 0.05 0.03 0.03 0.04 0.05 0.04
0.04 0.06 0.09 0.09 0.05 0.03 0.02 0.01 0.02 0.02 0.01 0.00 0.00 0.02 0.02 0.01 0.01 0.02 0.04 0.04 0.04 0.04
0.08 0.08 0.07 0.09 0.05 0.08 0.04 0.04 0.04 0.04 0.04 0.02 0.01 0.01 0.01 0.01 0.01 0.02 0.02 0.03 0.04 0.06
0.14 0.13 0.09 0.11 0.08 0.07 0.08 0.04 0.07 0.08 0.05 0.05 0.05 0.05 0.04 0.06 0.03 0.05 0.04 0.03 0.04 0.03
0.18 0.18 0.17 0.11 0.07 0.07 0.08 0.04 0.02 0.05 0.07 0.04 0.02 0.05 0.06 0.05 0.03 0.03 0.02 0.02 0.03 0.03
0.22 0.20 0.19 0.14 0.11 0.10 0.11 0.14 0.14 0.07 0.05 0.07 0.03 0.04 0.04 0.05 0.02 0.03 0.04 0.04 0.06 0.09
0.17 0.17 0.22 0.24 0.17 0.16 0.17 0.18 0.24 0.27 0.26 0.22 0.18 0.13 0.08 0.08 0.07 0.10 0.14 0.17 0.20 0.24

GFSNIL_prec_prec_108.txt.gz
QPF
0.02 0.02 0.00 0.00 0.00 0.00 0.00 0.00 0.00 0.00 0.00 0.00 0.00 0.00 0.01 0.05 0.15 0.20 0.36 0.25 0.17 0.07
0.02 0.03 0.00 0.00 0.00 0.00 0.00 0.00 0.00 0.00 0.00 0.00 0.00 0.00 0.00 0.01 0.09 0.15 0.13 0.15 0.15 0.16
0.07 0.08 0.05 0.01 0.00 0.00 0.00 0.00 0.00 0.00 0.00 0.00 0.00 0.00 0.00 0.01 0.02 0.14 0.18 0.14 0.13 0.16
0.07 0.07 0.08 0.06 0.01 0.01 0.00 0.00 0.00 0.00 0.00 0.00 0.00 0.00 0.00 0.00 0.01 0.06 0.25 0.24 0.19 0.21
0.11 0.09 0.08 0.07 0.03 0.01 0.00 0.00 0.00 0.00 0.00 0.00 0.00 0.00 0.01 0.01 0.02 0.04 0.07 0.19 0.21 0.23
0.04 0.06 0.06 0.06 0.05 0.03 0.01 0.00 0.00 0.00 0.00 0.00 0.00 0.00 0.00 0.01 0.00 0.00 0.04 0.06 0.07 0.09
0.03 0.06 0.08 0.05 0.04 0.02 0.01 0.00 0.00 0.00 0.00 0.00 0.00 0.00 0.00 0.00 0.00 0.00 0.00 0.01 0.02 0.03
0.05 0.09 0.16 0.20 0.15 0.05 0.03 0.02 0.00 0.00 0.00 0.00 0.00 0.01 0.02 0.01 0.00 0.01 0.01 0.00 0.02 0.03
0.09 0.11 0.21 0.23 0.18 0.07 0.03 0.03 0.02 0.01 0.00 0.00 0.01 0.05 0.03 0.02 0.01 0.02 0.03 0.06 0.03 0.07
0.13 0.15 0.17 0.29 0.26 0.16 0.06 0.03 0.03 0.02 0.02 0.01 0.01 0.02 0.03 0.05 0.02 0.02 0.02 0.04 0.07 0.06
0.10 0.14 0.16 0.21 0.25 0.18 0.08 0.02 0.01 0.01 0.01 0.02 0.03 0.03 0.03 0.05 0.03 0.04 0.02 0.01 0.01 0.02
0.12 0.18 0.20 0.21 0.21 0.22 0.25 0.14 0.05 0.01 0.01 0.01 0.02 0.06 0.06 0.04 0.02 0.04 0.04 0.02 0.02 0.03
0.27 0.26 0.25 0.25 0.30 0.27 0.26 0.31 0.22 0.11 0.06 0.06 0.04 0.07 0.06 0.07 0.06 0.06 0.05 0.03 0.03 0.06
0.22 0.33 0.38 0.37 0.43 0.40 0.34 0.27 0.25 0.16 0.11 0.10 0.07 0.12 0.17 0.16 0.11 0.13 0.15 0.11 0.07 0.06

GFSNIL_prec_prec_111.txt.gz
QPF
0.03 0.02 0.03 0.00 0.00 0.00 0.00 0.00 0.00 0.00 0.00 0.00 0.00 0.00 0.00 0.01 0.01 0.02 0.09 0.20 0.25 0.21
0.00 0.01 0.01 0.03 0.03 0.02 0.00 0.01 0.01 0.00 0.00 0.00 0.00 0.00 0.00 0.01 0.01 0.01 0.06 0.26 0.37 0.27
0.00 0.01 0.03 0.03 0.02 0.03 0.03 0.02 0.01 0.00 0.00 0.00 0.00 0.00 0.00 0.01 0.01 0.02 0.03 0.09 0.14 0.18
0.00 0.01 0.03 0.04 0.05 0.04 0.05 0.04 0.02 0.00 0.00 0.00 0.00 0.00 0.00 0.01 0.01 0.01 0.02 0.07 0.23 0.20
0.03 0.03 0.04 0.04 0.04 0.05 0.07 0.07 0.05 0.01 0.00 0.00 0.00 0.00 0.00 0.00 0.01 0.01 0.01 0.02 0.12 0.26
0.03 0.03 0.03 0.05 0.07 0.07 0.06 0.06 0.05 0.02 0.01 0.01 0.00 0.00 0.00 0.00 0.01 0.00 0.01 0.04 0.08 0.17
0.03 0.02 0.01 0.02 0.03 0.05 0.05 0.03 0.02 0.02 0.02 0.02 0.00 0.00 0.00 0.00 0.01 0.01 0.00 0.04 0.12 0.08
0.02 0.02 0.02 0.04 0.07 0.06 0.06 0.03 0.04 0.04 0.01 0.00 0.00 0.01 0.01 0.00 0.00 0.01 0.00 0.00 0.02 0.05
0.04 0.04 0.02 0.03 0.11 0.18 0.17 0.19 0.11 0.02 0.01 0.01 0.01 0.03 0.01 0.01 0.01 0.02 0.03 0.02 0.01 0.01
0.01 0.06 0.09 0.10 0.24 0.33 0.34 0.31 0.22 0.09 0.03 0.02 0.01 0.02 0.01 0.02 0.01 0.03 0.03 0.04 0.06 0.06
0.00 0.01 0.03 0.05 0.14 0.43 0.73 0.59 0.28 0.11 0.04 0.02 0.01 0.01 0.01 0.01 0.01 0.02 0.03 0.03 0.05 0.06
0.00 0.01 0.04 0.05 0.09 0.14 0.21 0.41 0.40 0.21 0.10 0.04 0.02 0.04 0.02 0.01 0.00 0.01 0.02 0.04 0.04 0.06
0.01 0.02 0.04 0.12 0.15 0.16 0.15 0.19 0.26 0.31 0.28 0.19 0.07 0.08 0.10 0.06 0.01 0.01 0.01 0.01 0.03 0.08
0.00 0.02 0.05 0.09 0.06 0.10 0.17 0.18 0.20 0.33 0.36 0.31 0.25 0.16 0.10 0.13 0.12 0.09 0.06 0.04 0.03 0.05

GFSNIL_prec_prec_114.txt.gz
QPF
0.01 0.00 0.00 0.00 0.00 0.00 0.00 0.00 0.00 0.00 0.00 0.00 0.00 0.01 0.01 0.01 0.01 0.01 0.01 0.01 0.02 0.04
0.00 0.00 0.01 0.02 0.05 0.05 0.06 0.03 0.03 0.02 0.00 0.00 0.00 0.00 0.01 0.02 0.01 0.01 0.01 0.03 0.07 0.16
0.00 0.00 0.00 0.01 0.01 0.01 0.04 0.05 0.04 0.03 0.02 0.00 0.00 0.00 0.01 0.01 0.01 0.01 0.00 0.00 0.01 0.04
0.00 0.00 0.00 0.00 0.00 0.00 0.01 0.02 0.02 0.04 0.02 0.01 0.00 0.00 0.01 0.01 0.01 0.00 0.00 0.00 0.02 0.06
0.00 0.00 0.00 0.01 0.01 0.01 0.01 0.03 0.06 0.07 0.03 0.02 0.03 0.02 0.00 0.00 0.00 0.00 0.00 0.00 0.02 0.10
0.01 0.01 0.01 0.02 0.02 0.02 0.04 0.03 0.04 0.05 0.04 0.03 0.04 0.04 0.01 0.00 0.00 0.00 0.00 0.00 0.01 0.03
0.02 0.03 0.03 0.04 0.03 0.04 0.04 0.05 0.04 0.05 0.06 0.05 0.03 0.01 0.01 0.00 0.00 0.00 0.00 0.00 0.03 0.06
0.00 0.00 0.02 0.02 0.02 0.01 0.02 0.04 0.03 0.05 0.07 0.07 0.08 0.07 0.02 0.00 0.00 0.00 0.00 0.00 0.01 0.06
0.00 0.00 0.01 0.01 0.00 0.00 0.01 0.02 0.08 0.11 0.14 0.14 0.11 0.15 0.12 0.02 0.00 0.00 0.00 0.00 0.00 0.01
0.00 0.00 0.00 0.00 0.00 0.01 0.05 0.11 0.18 0.32 0.34 0.23 0.14 0.15 0.17 0.07 0.01 0.01 0.01 0.01 0.01 0.02
0.00 0.00 0.00 0.00 0.01 0.03 0.04 0.08 0.20 0.34 0.40 0.42 0.32 0.18 0.15 0.07 0.01 0.01 0.02 0.02 0.02 0.03
0.00 0.00 0.00 0.00 0.00 0.02 0.03 0.10 0.27 0.35 0.37 0.36 0.26 0.19 0.14 0.06 0.02 0.02 0.02 0.01 0.02 0.03
0.00 0.00 0.00 0.00 0.01 0.02 0.01 0.03 0.10 0.21 0.27 0.31 0.28 0.25 0.22 0.19 0.13 0.06 0.03 0.01 0.02 0.06
0.00 0.00 0.00 0.00 0.00 0.00 0.00 0.01 0.01 0.03 0.10 0.20 0.26 0.28 0.27 0.21 0.15 0.17 0.17 0.15 0.11 0.08

GFSNIL_prec_prec_117.txt.gz
QPF
0.01 0.01 0.01 0.01 0.02 0.05 0.02 0.01 0.01 0.00 0.01 0.01 0.01 0.00 0.00 0.00 0.00 0.01 0.01 0.01 0.01 0.01
0.02 0.01 0.03 0.05 0.08 0.04 0.04 0.06 0.06 0.06 0.02 0.01 0.01 0.00 0.00 0.01 0.01 0.01 0.01 0.01 0.01 0.00
0.01 0.02 0.04 0.10 0.07 0.11 0.07 0.10 0.13 0.12 0.06 0.02 0.04 0.02 0.01 0.00 0.00 0.00 0.01 0.01 0.00 0.00
0.00 0.00 0.00 0.01 0.02 0.06 0.07 0.11 0.09 0.13 0.11 0.07 0.06 0.02 0.01 0.01 0.00 0.00 0.01 0.00 0.00 0.00
0.00 0.00 0.00 0.00 0.00 0.00 0.01 0.03 0.06 0.08 0.10 0.08 0.05 0.05 0.04 0.02 0.01 0.00 0.00 0.00 0.00 0.00
0.00 0.00 0.00 0.00 0.00 0.00 0.01 0.02 0.02 0.03 0.02 0.02 0.03 0.04 0.04 0.02 0.01 0.00 0.00 0.00 0.00 0.00
0.00 0.00 0.00 0.00 0.00 0.00 0.01 0.03 0.04 0.04 0.03 0.03 0.04 0.05 0.05 0.04 0.02 0.02 0.01 0.00 0.00 0.00
0.00 0.00 0.00 0.00 0.01 0.01 0.01 0.03 0.04 0.04 0.04 0.05 0.07 0.11 0.12 0.11 0.10 0.05 0.01 0.00 0.00 0.00
0.00 0.00 0.00 0.00 0.00 0.00 0.00 0.00 0.00 0.01 0.01 0.02 0.03 0.12 0.15 0.20 0.20 0.15 0.08 0.01 0.00 0.00
0.00 0.00 0.00 0.00 0.00 0.00 0.00 0.00 0.00 0.01 0.02 0.01 0.03 0.14 0.13 0.20 0.19 0.18 0.14 0.04 0.01 0.00
0.00 0.00 0.00 0.00 0.00 0.00 0.00 0.00 0.00 0.02 0.05 0.08 0.15 0.24 0.26 0.40 0.41 0.35 0.21 0.07 0.02 0.02
0.00 0.00 0.00 0.00 0.00 0.00 0.00 0.00 0.01 0.02 0.04 0.07 0.11 0.15 0.22 0.32 0.31 0.29 0.25 0.14 0.08 0.04
0.00 0.00 0.00 0.00 0.00 0.00 0.00 0.00 0.00 0.00 0.01 0.03 0.05 0.08 0.15 0.22 0.23 0.25 0.24 0.20 0.10 0.06
0.00 0.00 0.00 0.00 0.00 0.00 0.00 0.00 0.00 0.00 0.00 0.02 0.05 0.09 0.14 0.21 0.26 0.24 0.21 0.22 0.22 0.16

GFSNIL_prec_prec_120.txt.gz
QPF
0.08 0.02 0.00 0.00 0.01 0.00 0.00 0.00 0.02 0.07 0.08 0.06 0.03 0.01 0.00 0.00 0.00 0.01 0.01 0.01 0.00 0.00
0.01 0.01 0.01 0.02 0.01 0.02 0.02 0.02 0.05 0.11 0.11 0.08 0.08 0.05 0.03 0.00 0.00 0.00 0.00 0.01 0.01 0.00
0.00 0.00 0.00 0.02 0.04 0.05 0.04 0.05 0.08 0.12 0.11 0.05 0.18 0.24 0.17 0.09 0.07 0.03 0.00 0.00 0.00 0.00
0.00 0.01 0.01 0.02 0.03 0.06 0.07 0.07 0.10 0.10 0.11 0.04 0.07 0.21 0.18 0.09 0.03 0.02 0.00 0.00 0.00 0.00
0.00 0.00 0.00 0.00 0.00 0.01 0.03 0.08 0.09 0.03 0.04 0.04 0.03 0.04 0.06 0.06 0.03 0.03 0.02 0.02 0.01 0.00
0.00 0.00 0.00 0.00 0.00 0.00 0.00 0.01 0.04 0.05 0.04 0.05 0.04 0.05 0.05 0.05 0.03 0.01 0.01 0.01 0.01 0.00
0.00 0.00 0.00 0.00 0.00 0.00 0.00 0.00 0.00 0.00 0.01 0.02 0.03 0.02 0.02 0.03 0.02 0.01 0.01 0.01 0.01 0.01
0.00 0.00 0.00 0.00 0.00 0.00 0.00 0.00 0.00 0.02 0.03 0.03 0.02 0.03 0.02 0.01 0.01 0.03 0.07 0.07 0.08 0.08
0.00 0.00 0.00 0.00 0.00 0.00 0.00 0.00 0.00 0.01 0.02 0.03 0.03 0.08 0.03 0.02 0.01 0.08 0.24 0.35 0.35 0.36
0.00 0.00 0.00 0.00 0.00 0.00 0.00 0.00 0.00 0.00 0.00 0.00 0.00 0.03 0.00 0.01 0.01 0.02 0.12 0.24 0.22 0.17
0.00 0.00 0.00 0.00 0.00 0.00 0.00 0.01 0.00 0.00 0.00 0.00 0.00 0.01 0.00 0.01 0.01 0.04 0.09 0.13 0.10 0.07
0.00 0.00 0.00 0.00 0.00 0.00 0.00 0.00 0.00 0.00 0.00 0.01 0.01 0.03 0.02 0.02 0.04 0.06 0.07 0.12 0.13 0.12
0.00 0.00 0.00 0.00 0.00 0.00 0.00 0.00 0.00 0.00 0.00 0.00 0.01 0.01 0.01 0.01 0.04 0.07 0.11 0.12 0.17 0.22
0.00 0.00 0.00 0.00 0.00 0.00 0.00 0.00 0.00 0.00 0.00 0.00 0.00 0.00 0.00 0.01 0.01 0.04 0.05 0.08 0.13 0.21

GFSNIL_prec_prec_126.txt.gz
QPF
0.12 0.27 0.78 0.71 0.60 0.67 0.24 0.11 0.02 0.02 0.01 0.01 0.01 0.04 0.03 0.03 0.03 0.01 0.01 0.02 0.02 0.01
0.12 0.26 0.46 0.83 0.94 1.06 1.13 0.48 0.14 0.10 0.04 0.03 0.06 0.10 0.09 0.04 0.05 0.04 0.01 0.02 0.05 0.06
0.07 0.19 0.28 0.58 1.45 0.72 0.44 0.94 0.47 0.21 0.17 0.13 0.07 0.07 0.06 0.05 0.05 0.06 0.05 0.09 0.17 0.22
0.12 0.18 0.15 0.16 0.57 1.09 0.40 0.12 0.12 0.11 0.16 0.13 0.08 0.07 0.08 0.06 0.06 0.07 0.05 0.09 0.11 0.22
0.20 0.21 0.26 0.24 0.28 0.27 0.33 0.28 0.13 0.09 0.09 0.06 0.03 0.04 0.05 0.06 0.08 0.10 0.09 0.05 0.07 0.10
0.33 0.13 0.26 0.30 0.21 0.14 0.16 0.17 0.11 0.10 0.08 0.04 0.04 0.05 0.06 0.04 0.04 0.06 0.06 0.06 0.05 0.04
0.26 0.19 0.18 0.25 0.24 0.17 0.10 0.08 0.06 0.04 0.05 0.06 0.05 0.06 0.04 0.04 0.04 0.03 0.04 0.03 0.03 0.04
0.22 0.16 0.16 0.16 0.14 0.13 0.10 0.05 0.03 0.03 0.02 0.02 0.03 0.03 0.03 0.02 0.01 0.02 0.03 0.03 0.05 0.07
0.03 0.02 0.02 0.03 0.02 0.01 0.02 0.02 0.01 0.00 0.00 0.00 0.00 0.01 0.00 0.00 0.00 0.00 0.00 0.00 0.00 0.04
0.00 0.00 0.00 0.00 0.00 0.00 0.00 0.00 0.00 0.00 0.00 0.00 0.00 0.00 0.00 0.00 0.00 0.00 0.00 0.00 0.01 0.03
0.00 0.00 0.00 0.00 0.00 0.00 0.00 0.00 0.00 0.00 0.00 0.00 0.00 0.00 0.00 0.00 0.00 0.00 0.00 0.00 0.02 0.03
0.00 0.00 0.00 0.00 0.00 0.00 0.00 0.00 0.00 0.00 0.00 0.00 0.00 0.00 0.00 0.00 0.00 0.00 0.00 0.00 0.00 0.01
0.00 0.00 0.00 0.00 0.00 0.00 0.00 0.00 0.00 0.00 0.00 0.00 0.00 0.00 0.00 0.00 0.00 0.00 0.00 0.00 0.00 0.02
0.00 0.00 0.00 0.00 0.00 0.00 0.00 0.00 0.00 0.00 0.00 0.00 0.00 0.00 0.00 0.00 0.00 0.00 0.00 0.00 0.00 0.00

GFSNIL_prec_prec_129.txt.gz
QPF
0.01 0.00 0.02 0.14 0.40 0.42 0.60 0.54 0.26 0.07 0.06 0.01 0.01 0.01 0.01 0.01 0.01 0.01 0.01 0.01 0.00 0.00
0.03 0.01 0.05 0.42 0.43 1.28 1.14 1.09 0.88 0.25 0.12 0.02 0.01 0.02 0.05 0.04 0.04 0.04 0.03 0.01 0.01 0.00
0.09 0.03 0.08 0.16 0.37 1.14 1.78 1.72 1.49 0.47 0.24 0.22 0.16 0.11 0.06 0.04 0.03 0.04 0.04 0.03 0.06 0.05
0.11 0.04 0.07 0.22 0.21 0.50 1.06 1.27 1.79 1.03 0.45 0.31 0.29 0.22 0.21 0.15 0.09 0.05 0.04 0.03 0.05 0.06
0.05 0.05 0.13 0.22 0.34 0.33 0.49 0.72 0.76 0.64 0.85 0.82 0.36 0.16 0.12 0.08 0.12 0.16 0.17 0.14 0.15 0.13
0.07 0.05 0.04 0.17 0.41 0.39 0.30 0.28 0.46 0.37 0.33 0.47 0.27 0.10 0.12 0.08 0.03 0.06 0.11 0.13 0.14 0.12
0.06 0.07 0.02 0.04 0.20 0.25 0.25 0.27 0.27 0.31 0.33 0.27 0.15 0.09 0.09 0.10 0.09 0.06 0.07 0.09 0.10 0.07
0.11 0.15 0.11 0.10 0.10 0.14 0.17 0.18 0.18 0.12 0.11 0.14 0.15 0.14 0.15 0.12 0.08 0.05 0.05 0.06 0.07 0.06
0.02 0.10 0.24 0.26 0.17 0.11 0.10 0.07 0.08 0.08 0.06 0.05 0.04 0.04 0.03 0.03 0.04 0.04 0.02 0.01 0.01 0.02
0.00 0.00 0.00 0.02 0.03 0.04 0.03 0.03 0.03 0.03 0.01 0.01 0.01 0.01 0.00 0.00 0.00 0.00 0.00 0.00 0.00 0.00
0.00 0.00 0.00 0.00 0.00 0.00 0.00 0.00 0.00 0.00 0.00 0.00 0.00 0.00 0.00 0.00 0.00 0.00 0.00 0.00 0.00 0.00
0.00 0.00 0.00 0.00 0.00 0.00 0.00 0.00 0.00 0.00 0.00 0.00 0.00 0.00 0.00 0.00 0.00 0.00 0.00 0.00 0.00 0.00
0.00 0.00 0.00 0.00 0.00 0.00 0.00 0.00 0.00 0.00 0.00 0.00 0.00 0.00 0.00 0.00 0.00 0.00 0.00 0.00 0.00 0.00
0.00 0.00 0.00 0.00 0.00 0.00 0.00 0.00 0.00 0.00 0.00 0.00 0.00 0.00 0.00 0.00 0.00 0.00 0.00 0.00 0.00 0.00

GFSNIL_prec_prec_132.txt.gz
QPF
0.00 0.01 0.01 0.00 0.00 0.00 0.01 0.03 0.30 0.53 0.56 0.68 0.33 0.04 0.01 0.01 0.00 0.00 0.00 0.00 0.00 0.00
0.00 0.00 0.01 0.01 0.01 0.00 0.00 0.01 0.21 0.70 0.64 0.56 0.43 0.11 0.03 0.02 0.02 0.01 0.00 0.00 0.00 0.00
0.01 0.01 0.02 0.01 0.01 0.00 0.01 0.02 0.18 0.96 0.98 0.92 0.78 0.31 0.04 0.04 0.03 0.03 0.03 0.02 0.02 0.02
0.15 0.09 0.06 0.04 0.03 0.01 0.01 0.04 0.32 1.25 1.34 1.38 0.90 0.42 0.16 0.08 0.03 0.02 0.03 0.03 0.02 0.02
0.25 0.25 0.12 0.09 0.08 0.04 0.03 0.13 0.31 0.98 1.25 0.91 1.21 0.75 0.36 0.24 0.18 0.17 0.14 0.09 0.08 0.09
0.37 0.25 0.13 0.10 0.07 0.05 0.02 0.05 0.16 0.57 0.88 0.87 1.37 1.25 0.57 0.37 0.26 0.27 0.32 0.26 0.17 0.11
0.39 0.33 0.27 0.06 0.05 0.11 0.10 0.14 0.14 0.21 0.47 0.74 0.74 0.82 0.85 0.86 0.61 0.20 0.16 0.25 0.34 0.23
0.55 0.26 0.18 0.08 0.03 0.04 0.05 0.14 0.22 0.30 0.34 0.47 0.64 0.57 0.47 0.54 0.54 0.31 0.21 0.14 0.10 0.13
0.05 0.06 0.05 0.02 0.01 0.02 0.04 0.07 0.12 0.19 0.24 0.25 0.28 0.42 0.51 0.47 0.41 0.33 0.28 0.21 0.12 0.09
0.00 0.00 0.00 0.00 0.00 0.03 0.06 0.10 0.10 0.14 0.15 0.12 0.13 0.11 0.15 0.22 0.19 0.15 0.13 0.09 0.10 0.08
0.00 0.00 0.00 0.00 0.00 0.00 0.00 0.00 0.00 0.00 0.00 0.00 0.01 0.01 0.00 0.00 0.00 0.00 0.00 0.00 0.00 0.00
0.00 0.00 0.00 0.00 0.00 0.00 0.00 0.00 0.00 0.00 0.00 0.00 0.00 0.00 0.00 0.00 0.00 0.00 0.00 0.00 0.00 0.00
0.00 0.00 0.00 0.00 0.00 0.00 0.00 0.00 0.00 0.00 0.00 0.00 0.00 0.00 0.00 0.00 0.00 0.00 0.00 0.00 0.00 0.00
0.00 0.00 0.00 0.00 0.00 0.00 0.00 0.00 0.00 0.00 0.00 0.00 0.00 0.00 0.00 0.00 0.00 0.00 0.00 0.00 0.00 0.00

GFSNIL_prec_prec_135.txt.gz
QPF
0.00 0.01 0.01 0.02 0.02 0.01 0.00 0.00 0.00 0.00 0.00 0.06 0.27 0.61 0.66 0.60 0.24 0.10 0.06 0.05 0.04 0.01
0.00 0.00 0.01 0.02 0.03 0.02 0.01 0.01 0.00 0.00 0.00 0.01 0.11 0.44 0.55 0.52 0.43 0.13 0.06 0.03 0.04 0.03
0.01 0.01 0.02 0.02 0.03 0.03 0.03 0.01 0.00 0.00 0.00 0.00 0.11 0.34 0.44 0.43 0.51 0.26 0.11 0.08 0.04 0.03
0.02 0.01 0.03 0.04 0.06 0.07 0.04 0.01 0.00 0.00 0.00 0.00 0.05 0.32 0.53 0.41 0.28 0.19 0.11 0.09 0.07 0.04
0.11 0.11 0.08 0.14 0.10 0.08 0.05 0.01 0.00 0.00 0.00 0.00 0.05 0.25 0.44 0.51 0.55 0.39 0.22 0.10 0.07 0.06
0.25 0.19 0.33 0.38 0.34 0.17 0.08 0.03 0.00 0.00 0.00 0.01 0.04 0.16 0.57 0.60 0.50 0.44 0.28 0.17 0.10 0.09
0.57 0.74 0.51 0.43 0.42 0.46 0.18 0.10 0.04 0.01 0.00 0.07 0.25 0.48 0.59 0.66 0.64 0.76 0.56 0.27 0.17 0.20
0.60 0.72 0.69 0.62 0.51 0.32 0.25 0.31 0.09 0.03 0.01 0.02 0.16 0.38 0.55 0.59 0.78 1.02 1.07 0.69 0.40 0.36
0.02 0.12 0.22 0.29 0.29 0.08 0.09 0.07 0.01 0.01 0.01 0.03 0.11 0.21 0.31 0.52 0.57 0.56 0.61 0.66 0.64 0.54
0.00 0.00 0.00 0.01 0.01 0.01 0.00 0.00 0.00 0.00 0.01 0.05 0.10 0.10 0.13 0.27 0.46 0.53 0.53 0.50 0.42 0.40
0.00 0.00 0.00 0.00 0.00 0.00 0.00 0.00 0.00 0.00 0.01 0.01 0.01 0.01 0.01 0.01 0.04 0.06 0.06 0.05 0.05 0.07
0.00 0.00 0.00 0.00 0.00 0.00 0.00 0.00 0.00 0.00 0.00 0.00 0.00 0.00 0.00 0.00 0.00 0.00 0.00 0.00 0.00 0.00
0.00 0.00 0.00 0.00 0.00 0.00 0.00 0.00 0.00 0.00 0.00 0.00 0.00 0.00 0.00 0.00 0.00 0.00 0.00 0.00 0.00 0.00
0.00 0.00 0.00 0.00 0.00 0.00 0.00 0.00 0.00 0.00 0.00 0.00 0.00 0.00 0.00 0.00 0.00 0.00 0.00 0.00 0.00 0.00

GFSNIL_prec_prec_138.txt.gz
QPF
0.01 0.01 0.01 0.01 0.02 0.02 0.01 0.01 0.00 0.00 0.00 0.00 0.00 0.00 0.00 0.21 0.56 0.75 0.75 0.29 0.22 0.13
0.01 0.01 0.01 0.00 0.01 0.02 0.03 0.03 0.01 0.00 0.00 0.00 0.00 0.00 0.00 0.02 0.20 0.47 0.50 0.37 0.20 0.18
0.01 0.02 0.02 0.01 0.01 0.03 0.04 0.05 0.04 0.02 0.00 0.00 0.00 0.00 0.00 0.00 0.03 0.33 0.39 0.43 0.37 0.24
0.03 0.04 0.02 0.01 0.05 0.08 0.10 0.10 0.06 0.02 0.01 0.00 0.00 0.00 0.00 0.00 0.06 0.21 0.49 0.55 0.40 0.40
0.04 0.04 0.03 0.04 0.05 0.10 0.09 0.06 0.04 0.02 0.00 0.00 0.00 0.00 0.00 0.00 0.03 0.15 0.27 0.39 0.52 0.47
0.04 0.07 0.12 0.13 0.06 0.14 0.17 0.17 0.10 0.06 0.03 0.01 0.01 0.01 0.02 0.01 0.00 0.03 0.12 0.23 0.29 0.32
0.12 0.19 0.25 0.25 0.30 0.26 0.21 0.26 0.16 0.07 0.03 0.02 0.03 0.05 0.05 0.06 0.05 0.04 0.08 0.23 0.28 0.28
0.05 0.16 0.25 0.40 0.68 0.69 0.62 0.54 0.36 0.23 0.10 0.05 0.03 0.07 0.10 0.10 0.08 0.07 0.11 0.28 0.37 0.45
0.00 0.01 0.06 0.11 0.14 0.24 0.56 0.85 0.54 0.50 0.15 0.06 0.05 0.07 0.12 0.05 0.05 0.04 0.11 0.22 0.31 0.32
0.00 0.00 0.00 0.02 0.04 0.07 0.03 0.06 0.09 0.09 0.05 0.01 0.02 0.01 0.01 0.00 0.02 0.06 0.13 0.21 0.27 0.34
0.00 0.00 0.00 0.00 0.00 0.00 0.00 0.00 0.00 0.01 0.01 0.01 0.01 0.00 0.00 0.00 0.01 0.03 0.07 0.10 0.11 0.12
0.00 0.00 0.00 0.00 0.00 0.00 0.00 0.00 0.00 0.00 0.00 0.01 0.01 0.00 0.00 0.00 0.01 0.01 0.01 0.02 0.02 0.02
0.00 0.00 0.00 0.00 0.00 0.00 0.00 0.00 0.00 0.00 0.00 0.00 0.01 0.00 0.00 0.00 0.00 0.00 0.00 0.00 0.00 0.00
0.00 0.00 0.00 0.00 0.00 0.00 0.00 0.00 0.00 0.00 0.00 0.00 0.00 0.00 0.00 0.00 0.00 0.00 0.00 0.00 0.00 0.00

GFSNIL_prec_prec_141.txt.gz
QPF
0.01 0.01 0.01 0.01 0.01 0.01 0.01 0.00 0.00 0.00 0.00 0.00 0.00 0.00 0.00 0.00 0.00 0.00 0.06 0.32 0.38 0.47
0.01 0.01 0.01 0.01 0.00 0.00 0.01 0.01 0.00 0.01 0.01 0.01 0.00 0.00 0.00 0.00 0.00 0.00 0.02 0.18 0.37 0.44
0.00 0.01 0.01 0.01 0.00 0.01 0.02 0.02 0.02 0.04 0.04 0.02 0.00 0.00 0.00 0.00 0.00 0.00 0.00 0.02 0.11 0.34
0.01 0.01 0.01 0.02 0.02 0.06 0.07 0.10 0.03 0.05 0.08 0.04 0.01 0.00 0.00 0.00 0.00 0.00 0.00 0.04 0.12 0.15
0.01 0.01 0.02 0.05 0.05 0.05 0.12 0.04 0.03 0.06 0.06 0.03 0.00 0.00 0.00 0.01 0.00 0.00 0.00 0.00 0.02 0.11
0.00 0.01 0.05 0.08 0.10 0.15 0.15 0.09 0.07 0.07 0.05 0.04 0.02 0.01 0.01 0.01 0.02 0.01 0.00 0.00 0.00 0.05
0.00 0.01 0.04 0.06 0.14 0.23 0.32 0.22 0.23 0.19 0.17 0.11 0.10 0.07 0.05 0.04 0.06 0.06 0.04 0.02 0.00 0.00
0.00 0.00 0.01 0.02 0.08 0.19 0.39 0.46 0.47 0.40 0.20 0.10 0.14 0.18 0.14 0.25 0.18 0.14 0.14 0.08 0.03 0.02
0.00 0.00 0.00 0.00 0.02 0.06 0.11 0.13 0.24 0.40 0.28 0.31 0.17 0.19 0.31 0.40 0.47 0.40 0.24 0.17 0.10 0.07
0.00 0.00 0.00 0.00 0.00 0.01 0.02 0.04 0.08 0.15 0.13 0.09 0.03 0.03 0.11 0.19 0.30 0.41 0.37 0.25 0.14 0.07
0.00 0.00 0.00 0.00 0.00 0.00 0.00 0.00 0.02 0.05 0.06 0.03 0.00 0.00 0.00 0.01 0.01 0.02 0.03 0.02 0.02 0.02
0.00 0.00 0.00 0.00 0.00 0.00 0.00 0.00 0.00 0.00 0.01 0.01 0.00 0.00 0.00 0.00 0.00 0.00 0.00 0.01 0.01 0.01
0.00 0.00 0.00 0.00 0.00 0.00 0.00 0.00 0.00 0.00 0.00 0.00 0.00 0.00 0.00 0.00 0.00 0.00 0.00 0.00 0.00 0.00
0.00 0.00 0.00 0.00 0.00 0.00 0.00 0.00 0.00 0.00 0.00 0.00 0.00 0.00 0.00 0.00 0.00 0.00 0.00 0.00 0.00 0.00

GFSNIL_prec_prec_144.txt.gz
QPF
0.00 0.01 0.01 0.01 0.01 0.01 0.01 0.00 0.00 0.00 0.00 0.01 0.00 0.00 0.00 0.01 0.01 0.02 0.04 0.05 0.04 0.06
0.00 0.00 0.01 0.01 0.01 0.01 0.01 0.01 0.01 0.00 0.01 0.02 0.02 0.01 0.01 0.01 0.01 0.01 0.02 0.03 0.04 0.03
0.00 0.00 0.00 0.00 0.01 0.00 0.01 0.02 0.03 0.02 0.01 0.01 0.01 0.01 0.01 0.00 0.00 0.02 0.02 0.03 0.02 0.02
0.00 0.00 0.00 0.00 0.01 0.02 0.03 0.03 0.02 0.01 0.02 0.08 0.02 0.00 0.00 0.00 0.01 0.02 0.01 0.01 0.02 0.02
0.00 0.00 0.00 0.01 0.03 0.02 0.05 0.04 0.02 0.01 0.05 0.15 0.07 0.01 0.01 0.00 0.00 0.01 0.00 0.00 0.01 0.01
0.00 0.00 0.00 0.01 0.03 0.06 0.06 0.05 0.07 0.03 0.04 0.05 0.05 0.02 0.02 0.01 0.00 0.01 0.01 0.01 0.01 0.01
0.00 0.00 0.00 0.00 0.01 0.03 0.06 0.09 0.17 0.20 0.17 0.13 0.06 0.02 0.02 0.01 0.01 0.01 0.01 0.03 0.03 0.02
0.00 0.00 0.00 0.00 0.00 0.00 0.01 0.05 0.14 0.21 0.22 0.17 0.15 0.18 0.11 0.06 0.05 0.02 0.03 0.04 0.05 0.07
0.00 0.00 0.00 0.00 0.00 0.01 0.00 0.00 0.01 0.02 0.04 0.07 0.09 0.10 0.13 0.16 0.20 0.18 0.15 0.23 0.16 0.15
0.00 0.00 0.00 0.00 0.00 0.00 0.00 0.01 0.01 0.03 0.03 0.04 0.02 0.01 0.02 0.06 0.13 0.20 0.28 0.32 0.45 0.35
0.00 0.00 0.00 0.00 0.00 0.00 0.00 0.00 0.00 0.01 0.01 0.00 0.00 0.00 0.00 0.04 0.06 0.08 0.10 0.12 0.12 0.08
0.00 0.00 0.00 0.00 0.00 0.00 0.00 0.00 0.00 0.00 0.00 0.00 0.00 0.00 0.00 0.00 0.01 0.02 0.03 0.03 0.03 0.03
0.00 0.00 0.00 0.00 0.00 0.00 0.00 0.00 0.00 0.00 0.00 0.00 0.00 0.00 0.00 0.00 0.00 0.00 0.00 0.01 0.01 0.01
0.00 0.00 0.00 0.00 0.00 0.00 0.00 0.00 0.00 0.00 0.00 0.00 0.00 0.00 0.00 0.00 0.00 0.00 0.00 0.00 0.00 0.00